Simultaneous Nadir Overpasses (SNOs) Predictions

Prediction of SNOs between METOP-A and NOAA-19 Satellite Orbit:

Table of predicted SNOs for the next 14.0 days since TLE Epoch: 6/14/2013
Index Date (METOP-A) Time (METOP-A) Lat,Lon (METOP-A) SZA (METOP-A ) Date (NOAA-19) Time (NOAA-19) Lat,Lon (NOAA-19) SZA (NOAA-19 ) Distance(km) Time Diff (sec)
1 06/18/2013 13:15:54 -74.07, 155.59 129.34 06/18/2013 13:14:46 -74.05, 152.94 129.24 81.07 68
2 06/18/2013 14:06:45 73.51, -38.41 50.16 06/18/2013 14:05:37 73.49, -38.47 50.15 2.89 68
3 06/18/2013 14:57:28 -73.46, 128.79 129.90 06/18/2013 14:56:39 -73.49, 128.79 129.86 3.29 49
4 06/18/2013 15:48:08 73.44, -63.91 50.09 06/18/2013 15:47:41 73.47, -63.93 50.12 3.21 27
5 06/18/2013 16:38:50 -73.43, 103.40 129.92 06/18/2013 16:38:42 -73.41, 103.45 129.94 3.00 8
6 06/18/2013 17:29:30 73.42, -89.30 50.07 06/18/2013 17:29:44 73.39, -89.27 50.04 2.80 14
7 06/18/2013 18:20:12 -73.41, 78.01 129.94 06/18/2013 18:20:46 -73.38, 77.99 129.97 2.98 34
8 06/18/2013 19:10:52 73.39,-114.69 50.05 06/18/2013 19:11:48 73.37,-114.73 50.01 3.09 56
9 06/18/2013 20:01:35 -73.34, 52.51 130.01 06/18/2013 20:02:50 -73.36, 52.53 130.00 2.41 75




NCC Satellite Simultaneous Nadir Overpasses (SNOs) Prediction Service
